Meteo Giornale » Osservazioni meteo Italia » Treviso-Istrana
ore: 14:55 - Osservazioni Meteo Treviso-Istrana
Lat. 45° 41' N Lon. 12° 6' E Alt. 45 metri s.l.m.
31 °C
Sereno
Temp. 24 Ore
19 °C
31 °C
Est/Nord-Est
7.4 Km/h
Dew point 16 °C
Umidità 40 %
Visibilità 10 Km
Il sole sorge alle ore 06:34
Il sole tramonta alle ore 19:48
| Data e Ora | Cielo e Fenomeni | T °C | DP °C | Um. % | Pres. hPa | Vis. km | Vento km/h | |
|---|---|---|---|---|---|---|---|---|
| Oggi h: 14:55 | Sereno | 31 | 16 | 40 | 1017 | 10 | E/NE 7.4 | |
| Oggi h: 13:55 | Sereno | 31 | 15 | 37 | 1017 | 10 | S/SE 9.3 | |
| Oggi h: 12:55 | Sereno | 30 | 15 | 40 | 1018 | 10 | N 5.5 | |
| Oggi h: 11:55 | Sereno | 29 | 15 | 42 | 1018 | 10 | E 11.1 | |
| Oggi h: 10:55 | Sereno | 28 | 16 | 48 | 1019 | 10 | E/NE 11.1 | |
| Oggi h: 09:55 | Sereno | 28 | 16 | 48 | 1018 | 10 | E/NE 11.1 | |
| Oggi h: 08:55 | Sereno | 25 | 17 | 61 | 1018 | 10 | N 7.4 | |
| Oggi h: 07:55 | Sereno | 21 | 18 | 82 | 1018 | 10 | N 5.5 | |
| Oggi h: 06:55 | Sereno | 19 | 16 | 82 | 1018 | 10 | N 3.7 | |
| Oggi h: 05:55 | Sereno | 19 | 16 | 82 | 1017 | 10 | N 3.7 | |
| Oggi h: 04:55 | Sereno | 19 | 16 | 82 | 1017 | 10 | N 3.7 | |
| Oggi h: 03:55 | Sereno | 20 | 17 | 82 | 1017 | 10 | N 3.7 | |
| Oggi h: 02:55 | Sereno | 20 | 17 | 82 | 1018 | 10 | N 1.8 | |
| Oggi h: 01:55 | Sereno | 20 | 17 | 82 | 1018 | 10 | N 1.8 | |
| Oggi h: 00:55 | Sereno | 22 | 17 | 73 | 1018 | 10 | N 5.5 | |
| Ieri h: 23:55 | Sereno | 22 | 17 | 73 | 1017 | 10 | N 3.7 | |
| Ieri h: 22:55 | Sereno | 23 | 17 | 68 | 1017 | 10 | N 5.5 | |
| Ieri h: 21:55 | Sereno | 23 | 17 | 68 | 1017 | 10 | N 5.5 | |
| Ieri h: 20:55 | Sereno | 25 | 17 | 61 | 1017 | 10 | N 3.7 | |
| Ieri h: 19:55 | Sereno | 28 | 16 | 48 | 1016 | 10 | N 5.5 | |
| Ieri h: 18:55 | Sereno | 30 | 16 | 42 | 1016 | 10 | S/SE 7.4 | |
| Ieri h: 17:55 | Sereno | 31 | 15 | 37 | 1016 | 10 | E/SE 7.4 | |
| Ieri h: 16:55 | Sereno | 31 | 16 | 40 | 1017 | 10 | E/SE 11.1 | |
| Ieri h: 15:55 | Sereno | 31 | 16 | 40 | 1017 | 10 | E 13 | |



